TimeMDT,TemperatureF,Dew PointF,Humidity,Sea Level PressureIn,VisibilityMPH,Wind Direction,Wind SpeedMPH,Gust SpeedMPH,PrecipitationIn,Events,Conditions,WindDirDegrees,DateUTC
12:53 AM,37.0,30.0,76,29.99,10.0,SE,5.8,-,N/A,,Clear,130,2012-10-24 06:53:00
1:53 AM,36.0,28.9,76,29.99,10.0,SE,6.9,-,N/A,,Clear,140,2012-10-24 07:53:00
2:53 AM,36.0,28.9,76,29.98,10.0,SE,8.1,-,N/A,,Clear,130,2012-10-24 08:53:00
3:53 AM,36.0,28.0,73,29.99,10.0,SE,9.2,-,N/A,,Clear,130,2012-10-24 09:53:00
4:53 AM,36.0,27.0,70,29.99,10.0,SE,12.7,-,N/A,,Clear,130,2012-10-24 10:53:00
5:53 AM,36.0,26.1,67,29.99,10.0,ESE,11.5,-,N/A,,Clear,120,2012-10-24 11:53:00
6:53 AM,36.0,26.1,67,29.99,10.0,SE,10.4,-,N/A,,Clear,130,2012-10-24 12:53:00
7:53 AM,37.0,25.0,62,29.99,10.0,ESE,9.2,-,N/A,,Clear,120,2012-10-24 13:53:00
8:53 AM,39.0,25.0,57,30.00,10.0,ESE,13.8,-,N/A,,Clear,120,2012-10-24 14:53:00
10:53 AM,43.0,25.0,49,30.00,10.0,ESE,13.8,-,N/A,,Partly Cloudy,120,2012-10-24 16:53:00
11:53 AM,44.1,26.1,49,30.01,10.0,SE,13.8,-,N/A,,Overcast,130,2012-10-24 17:53:00
12:53 PM,46.0,27.0,47,30.02,10.0,ESE,3.5,-,N/A,,Overcast,120,2012-10-24 18:53:00
1:53 PM,44.1,34.0,68,30.04,10.0,North,6.9,-,N/A,,Overcast,350,2012-10-24 19:53:00
2:53 PM,41.0,34.0,76,30.05,10.0,Variable,5.8,-,N/A,,Overcast,0,2012-10-24 20:53:00
3:12 PM,41.0,33.8,76,30.02,10.0,NE,6.9,-,N/A,,Overcast,40,2012-10-24 21:12:00
3:53 PM,39.9,34.0,79,30.07,6.0,West,4.6,-,0.01,Rain,Light Rain,280,2012-10-24 21:53:00
4:31 PM,39.2,33.8,81,30.04,5.0,Calm,Calm,-,0.02,Rain,Light Rain,0,2012-10-24 22:31:00
4:53 PM,39.0,35.1,86,30.08,7.0,Calm,Calm,-,0.02,Rain,Light Rain,0,2012-10-24 22:53:00
5:26 PM,39.2,35.6,87,30.05,8.0,SE,4.6,-,0.01,Rain,Light Rain,140,2012-10-24 23:26:00
5:34 PM,39.2,35.6,87,30.06,9.0,Calm,Calm,-,0.01,Rain,Light Rain,0,2012-10-24 23:34:00
5:53 PM,39.9,36.0,86,30.09,10.0,SSE,4.6,-,0.01,Rain,Light Rain,150,2012-10-24 23:53:00
6:53 PM,39.2,35.6,87,30.06,10.0,SE,5.8,-,N/A,,Mostly Cloudy,130,2012-10-25 00:53:00
7:53 PM,37.9,35.1,89,30.11,10.0,SSE,3.5,-,N/A,,Mostly Cloudy,160,2012-10-25 01:53:00
8:53 PM,37.0,33.1,86,30.13,10.0,SE,4.6,-,N/A,,Clear,140,2012-10-25 02:53:00
9:53 PM,37.4,33.8,87,30.10,10.0,ESE,3.5,-,N/A,,Scattered Clouds,120,2012-10-25 03:53:00
10:53 PM,35.1,33.1,92,30.14,10.0,Calm,Calm,-,N/A,,Mostly Cloudy,0,2012-10-25 04:53:00
11:53 PM,36.0,33.1,89,30.15,10.0,SE,5.8,-,N/A,,Mostly Cloudy,130,2012-10-25 05:53:00